Bar Harbor, ME

6:06 AM EST on December 13, 2019 (GMT -0500)
Hancock County-Bar Harbor

Weather History for KBHB - November, 2019

Change the Weather History Date:

Saturday, November 16, 2019

  Actual Average Record
Temperature  
Mean Temperature 22 °F -  
Max Temperature 28 °F 42 °F 62 °F (1956)
Min Temperature 17 °F 27 °F 15 °F (1980)
Degree Days  
Heating Degree Days 42    
Moisture  
Dew Point 7 °F    
Average Humidity 52    
Maximum Humidity 71    
Minimum Humidity 38    
Precipitation  
Precipitation 0.00 in - - ()
Sea Level Pressure  
Sea Level Pressure 30.43 in    
Wind  
Wind Speed 9 mph (NW)    
Max Wind Speed 14 mph    
Max Gust Speed 24 mph    
Visibility 10 miles    
Events      
Averages and records for this station are not official NWS values.
T = Trace of Precipitation, MM = Missing Value Source: NWS Daily Summary

Daily Weather History Graph

Daily Weather History Graph

Search for Another Location

Airport or City:

Astronomy

Nov. 16, 2019 Rise Set
Actual Time 6:30 AM EST 4:05 PM EST
Civil Twilight 5:59 AM EST 4:36 PM EST
Nautical Twilight 5:23 AM EST 5:12 PM EST
Astronomical Twilight 4:49 AM EST 5:46 PM EST
Moon 7:30 PM EST (11/16) 10:25 AM EST (11/16)
Length of Visible Light 10h 37m
Length of Day
9h 34m
Waning Gibbous, 82% of the Moon is Illuminated
Nov 16
Waning Gibbous
Nov 19
Last Quarter
Nov 26
New
Dec 4
First Quarter
Dec 12
Full

Hourly Weather History & Observations

Time (EST) Temp. Windchill Dew Point Humidity Pressure Visibility Wind Dir Wind Speed Gust Speed Precip Events Conditions
12:56 AM 27.0 °F 16.1 °F 10.0 °F 49% 30.18 in 10.0 mi NW 12.7 mph 24.2 mph N/A   Clear
1:56 AM 25.0 °F 13.6 °F 9.0 °F 51% 30.22 in 10.0 mi NW 12.7 mph 23.0 mph N/A   Clear
2:56 AM 21.9 °F 12.5 °F 8.1 °F 55% 30.28 in 10.0 mi NW 8.1 mph 18.4 mph N/A   Scattered Clouds
3:56 AM 19.0 °F 5.6 °F 3.0 °F 50% 30.30 in 10.0 mi NNW 13.8 mph 21.9 mph N/A   Clear
4:56 AM 17.1 °F 7.6 °F 3.0 °F 54% 30.35 in 10.0 mi Variable 6.9 mph 17.3 mph N/A   Clear
5:56 AM 17.1 °F 5.8 °F 3.0 °F 54% 30.38 in 10.0 mi WNW 9.2 mph - N/A   Clear
6:56 AM 17.1 °F 7.6 °F 1.0 °F 50% 30.41 in 10.0 mi WNW 6.9 mph - N/A   Clear
7:56 AM 18.0 °F 7.7 °F 3.9 °F 54% 30.43 in 10.0 mi WNW 8.1 mph - N/A   Clear
8:56 AM 19.9 °F 10.1 °F 5.0 °F 52% 30.45 in 10.0 mi NW 8.1 mph 16.1 mph N/A   Clear
9:56 AM 21.9 °F 11.7 °F 5.0 °F 48% 30.45 in 10.0 mi NW 9.2 mph - N/A   Clear
10:56 AM 24.1 °F 12.0 °F 6.1 °F 46% 30.44 in 10.0 mi NNW 13.8 mph 18.4 mph N/A   Clear
12:56 PM 28.0 °F 17.5 °F 5.0 °F 38% 30.43 in 10.0 mi WNW 12.7 mph 17.3 mph N/A   Clear
1:56 PM 28.9 °F 21.1 °F 6.1 °F 38% 30.43 in 10.0 mi WNW 8.1 mph - N/A   Clear
2:56 PM 28.0 °F 20.8 °F 7.0 °F 41% 30.44 in 10.0 mi NNW 6.9 mph - N/A   Clear
3:56 PM 27.0 °F 19.5 °F 7.0 °F 43% 30.45 in 10.0 mi NW 6.9 mph - N/A   Clear
4:56 PM 26.1 °F 20.5 °F 8.1 °F 47% 30.48 in 10.0 mi WNW 4.6 mph - N/A   Clear
5:56 PM 25.0 °F 18.1 °F 9.0 °F 51% 30.50 in 10.0 mi Variable 5.8 mph - N/A   Clear
6:56 PM 24.1 °F - 9.0 °F 53% 30.51 in 10.0 mi Calm Calm - N/A   Clear
7:56 PM 23.0 °F 15.8 °F 9.0 °F 55% 30.52 in 10.0 mi NNW 5.8 mph - N/A   Clear
8:56 PM 21.9 °F 15.7 °F 10.0 °F 60% 30.54 in 10.0 mi NNW 4.6 mph - N/A   Clear
9:56 PM 21.0 °F 13.4 °F 10.0 °F 63% 30.54 in 10.0 mi NW 5.8 mph - N/A   Clear
10:56 PM 19.0 °F 13.9 °F 10.0 °F 68% 30.54 in 10.0 mi NNW 3.5 mph - N/A   Clear
11:56 PM 18.0 °F - 10.0 °F 71% 30.53 in 10.0 mi Calm Calm - N/A   Clear